Weather History for KPVC - September, 2012

Change the Weather History Date:

Sunday, September 2, 2012

  Actual Average Record
Temperature  
Mean Temperature 62 °F -  
Max Temperature 73 °F 72 °F 93 °F (1953)
Min Temperature 51 °F 59 °F 46 °F (1999)
Degree Days  
Heating Degree Days 3    
Growing Degree Days 12 (Base 50)    
Moisture  
Dew Point 55 °F    
Average Humidity 77    
Maximum Humidity 94    
Minimum Humidity 57    
Precipitation  
Precipitation 0.00 in - - ()
Sea Level Pressure  
Sea Level Pressure 30.11 in    
Wind  
Wind Speed 4 mph (SE)    
Max Wind Speed 10 mph    
Max Gust Speed -    
Visibility 10 miles    
Events      
Averages and records for this station are not official NWS values.
T = Trace of Precipitation, MM = Missing Value Source: NWS Daily Summary

Daily Weather History Graph

Daily Weather History Graph

Search for Another Location

Airport or City:

Trip Planner

Search our weather history database for the weather conditions in past years. The results will help you decide how hot, cold, wet, or windy it might be!

Date:

Astronomy

Sep. 02, 2012 Rise Set
Actual Time 6:07 AM EDT 7:12 PM EDT
Civil Twilight 5:39 AM EDT 7:40 PM EDT
Nautical Twilight 5:04 AM EDT 8:14 PM EDT
Astronomical Twilight 4:29 AM EDT 8:50 PM EDT
Moon 7:53 PM EDT (9/2) 8:16 AM EDT (9/2)
Length of Visible Light 14h 01m
Length of Day
13h 04m
Waning Gibbous, 95% of the Moon is Illuminated
Sep 2
Waning Gibbous
Sep 8
Last Quarter
Sep 15
New
Sep 22
First Quarter
Sep 29
Full

Hourly Weather History & Observations

Time (EDT) Temp. Dew Point Humidity Pressure Visibility Wind Dir Wind Speed Gust Speed Precip Events Conditions
12:15 AM 55.4 °F 51.8 °F 88% 30.12 in 10.0 mi Calm Calm - N/A   Clear
12:35 AM 53.6 °F 51.8 °F 94% 30.12 in 10.0 mi Calm Calm - N/A   Clear
12:55 AM 53.6 °F 51.8 °F 94% 30.12 in 10.0 mi Calm Calm - N/A   Clear
1:15 AM 53.6 °F 50.0 °F 88% 30.12 in 10.0 mi Calm Calm - N/A   Clear
1:35 AM 53.6 °F 51.8 °F 94% 30.12 in 10.0 mi Calm Calm - N/A   Clear
1:55 AM 53.6 °F 50.0 °F 88% 30.12 in 10.0 mi Calm Calm - N/A   Clear
2:35 AM 51.8 °F 48.2 °F 88% 30.12 in 10.0 mi Calm Calm - N/A   Clear
2:55 AM 51.8 °F 48.2 °F 88% 30.11 in 10.0 mi ESE 5.8 mph - N/A   Clear
3:15 AM 53.6 °F 50.0 °F 88% 30.12 in 10.0 mi Calm Calm - N/A   Partly Cloudy
3:35 AM 51.8 °F 48.2 °F 88% 30.11 in 10.0 mi East 6.9 mph - N/A   Scattered Clouds
4:15 AM 53.6 °F 51.8 °F 94% 30.11 in 10.0 mi Calm Calm - N/A   Clear
4:35 AM 53.6 °F 51.8 °F 94% 30.10 in 10.0 mi ESE 3.5 mph - N/A   Scattered Clouds
4:55 AM 51.8 °F 48.2 °F 88% 30.10 in 10.0 mi ESE 5.8 mph - N/A   Scattered Clouds
5:15 AM 53.6 °F 51.8 °F 94% 30.10 in 10.0 mi ESE 4.6 mph - N/A   Mostly Cloudy
5:35 AM 53.6 °F 51.8 °F 94% 30.11 in 10.0 mi Calm Calm - N/A   Mostly Cloudy
5:55 AM 55.4 °F 51.8 °F 88% 30.11 in 10.0 mi SE 4.6 mph - N/A   Partly Cloudy
6:16 AM 53.6 °F 51.8 °F 94% 30.11 in 10.0 mi ESE 3.5 mph - N/A   Clear
6:35 AM 55.4 °F 51.8 °F 88% 30.11 in 10.0 mi Calm Calm - N/A   Mostly Cloudy
6:55 AM 57.2 °F 55.4 °F 94% 30.12 in 10.0 mi East 5.8 mph - N/A   Overcast
7:15 AM 62.6 °F 57.2 °F 82% 30.12 in 10.0 mi East 4.6 mph - N/A   Overcast
7:35 AM 64.4 °F 59.0 °F 83% 30.12 in 10.0 mi ESE 3.5 mph - N/A   Overcast
7:55 AM 66.2 °F 60.8 °F 83% 30.12 in 10.0 mi East 5.8 mph - N/A   Scattered Clouds
8:15 AM 68.0 °F 57.2 °F 68% 30.12 in 10.0 mi ESE 6.9 mph - N/A   Partly Cloudy
8:35 AM 68.0 °F 57.2 °F 68% 30.12 in 10.0 mi SSE 6.9 mph - N/A   Partly Cloudy
8:55 AM 69.8 °F 57.2 °F 64% 30.11 in 10.0 mi SSE 8.1 mph - N/A   Partly Cloudy
9:15 AM 69.8 °F 59.0 °F 68% 30.11 in 10.0 mi ESE 9.2 mph - N/A   Clear
9:36 AM 69.8 °F 57.2 °F 64% 30.12 in 10.0 mi SSE 6.9 mph - N/A   Mostly Cloudy
9:55 AM 69.8 °F 57.2 °F 64% 30.12 in 10.0 mi SSE 9.2 mph - N/A   Overcast
10:15 AM 71.6 °F 57.2 °F 60% 30.12 in 10.0 mi SSE 8.1 mph - N/A   Mostly Cloudy
10:35 AM 71.6 °F 57.2 °F 60% 30.12 in 10.0 mi South 9.2 mph - N/A   Mostly Cloudy
10:55 AM 71.6 °F 57.2 °F 60% 30.11 in 10.0 mi South 10.4 mph - N/A   Scattered Clouds
11:15 AM 71.6 °F 55.4 °F 57% 30.11 in 10.0 mi South 9.2 mph - N/A   Clear
11:35 AM 71.6 °F 57.2 °F 60% 30.11 in 10.0 mi SSW 8.1 mph - N/A   Scattered Clouds
11:55 AM 71.6 °F 57.2 °F 60% 30.11 in 10.0 mi SSW 6.9 mph - N/A   Mostly Cloudy
12:15 PM 71.6 °F 57.2 °F 60% 30.10 in 10.0 mi SSE 4.6 mph - N/A   Overcast
12:35 PM 69.8 °F 55.4 °F 60% 30.10 in 10.0 mi SW 8.1 mph - N/A   Overcast
12:55 PM 69.8 °F 57.2 °F 64% 30.10 in 10.0 mi SSW 5.8 mph - N/A   Overcast
1:15 PM 69.8 °F 55.4 °F 60% 30.09 in 10.0 mi South 6.9 mph - N/A   Overcast
1:35 PM 71.6 °F 57.2 °F 60% 30.09 in 10.0 mi SSW 10.4 mph - N/A   Overcast
1:55 PM 69.8 °F 57.2 °F 64% 30.10 in 10.0 mi South 6.9 mph - N/A   Overcast
2:15 PM 69.8 °F 57.2 °F 64% 30.10 in 10.0 mi SSE 5.8 mph - N/A   Overcast
2:35 PM 71.6 °F 57.2 °F 60% 30.09 in 10.0 mi SSE 10.4 mph - N/A   Overcast
2:55 PM 73.4 °F 57.2 °F 57% 30.08 in 10.0 mi South 10.4 mph - N/A   Partly Cloudy
3:15 PM 73.4 °F 57.2 °F 57% 30.08 in 10.0 mi South 9.2 mph - N/A   Clear
3:35 PM 73.4 °F 57.2 °F 57% 30.08 in 10.0 mi SE 9.2 mph - N/A   Clear
3:55 PM 71.6 °F 57.2 °F 60% 30.08 in 10.0 mi SSE 9.2 mph - N/A   Partly Cloudy
4:35 PM 71.6 °F 60.8 °F 69% 30.07 in 10.0 mi SE 9.2 mph - N/A   Mostly Cloudy
4:55 PM 69.8 °F 59.0 °F 68% 30.08 in 10.0 mi SE 8.1 mph - N/A   Overcast
5:15 PM 69.8 °F 59.0 °F 68% 30.09 in 10.0 mi SE 6.9 mph - N/A   Overcast
5:55 PM 69.8 °F 57.2 °F 64% 30.09 in 10.0 mi ESE 9.2 mph - N/A   Mostly Cloudy
6:15 PM 69.8 °F 57.2 °F 64% 30.08 in 10.0 mi ESE 10.4 mph - N/A   Partly Cloudy
6:35 PM 68.0 °F 59.0 °F 73% 30.09 in 10.0 mi ESE 6.9 mph - N/A   Mostly Cloudy
6:55 PM 66.2 °F 59.0 °F 78% 30.10 in 10.0 mi ESE 6.9 mph - N/A   Overcast
7:15 PM 66.2 °F 59.0 °F 78% 30.10 in 10.0 mi ESE 3.5 mph - N/A   Scattered Clouds
7:35 PM 64.4 °F 59.0 °F 83% 30.11 in 10.0 mi East 4.6 mph - N/A   Clear
7:56 PM 62.6 °F 59.0 °F 88% 30.12 in 10.0 mi East 3.5 mph - N/A   Scattered Clouds
8:15 PM 62.6 °F 57.2 °F 82% 30.12 in 10.0 mi ESE 4.6 mph - N/A   Partly Cloudy
8:35 PM 62.6 °F 59.0 °F 88% 30.13 in 10.0 mi Calm Calm - N/A   Clear
8:56 PM 60.8 °F 57.2 °F 88% 30.14 in 10.0 mi Calm Calm - N/A   Clear
9:15 PM 59.0 °F 55.4 °F 88% 30.14 in 10.0 mi ENE 3.5 mph - N/A   Clear
9:35 PM 59.0 °F 55.4 °F 88% 30.13 in 10.0 mi ENE 3.5 mph - N/A   Clear
9:55 PM 59.0 °F 55.4 °F 88% 30.13 in 10.0 mi Calm Calm - N/A   Clear
10:35 PM 57.2 °F 53.6 °F 88% 30.14 in 10.0 mi Calm Calm - N/A   Clear
10:55 PM 55.4 °F 53.6 °F 94% 30.14 in 9.0 mi Calm Calm - N/A   Clear
11:15 PM 55.4 °F 51.8 °F 88% 30.15 in 10.0 mi Calm Calm - N/A   Clear
11:35 PM 55.4 °F 51.8 °F 88% 30.15 in 10.0 mi Calm Calm - N/A   Clear